www.pogodaiklimat.ru

Погода и климат >> Архив погоды >> Украина >> Красноград


ПОГОДА в Краснограде

  • Прогноз погоды в Краснограде
  • Монитор погоды в Краснограде

АРХИВ ПОГОДЫ в Краснограде

Время (UTC), дата Ветер
(напр.,м/с)
 
Видим.   Явления Облачность Т
(С)
Тd
(С)
f
(%)
Тe
(С)
Тes
(С)
Комфортность P
(гПа)
Po
(гПа)
Тmin
(С)
Tmax
(С)
R
(мм)
R24
(мм)
S
(см)
21 12.06 С 3 10 км {ливн. осадки} 8/8 600 м
[Sc]
+24.2 +11.5 45 +26 +26 жарко 1013.6 995.3
00 13.06 СВ 2 10 км {ливн. осадки} 9/5 600 м
[Sc Ac trans Ci fib]
+23.4 +14.1 56 +27 +27 душно 1013.6 995.2
03 13.06 СВ 4 10 км 9/8 600 м
[Sc Ac trans]
+22.9 +14.6 59 +27 +27 душно 1013.8 995.4
06 13.06 С 4 10 км 6/0
[Ac trans]
+27.8 +16.2 49 +31 +35 душно 1014.4 996.3 +22.9 0.0
09 13.06 ЮВ 3 10 км 8/0
[Ci fib]
+31.3 +15.8 39 +34 +46 душно 1014.5 996.6
12 13.06 СВ 4 10 км 9/9 600 м
[Cu med, cong]
+30.8 +15.5 40 +33 +34 душно 1014.4 996.5
15 13.06 СВ 3 10 км {гроза} 8/4 600 м
[Cb cap Ci fib]
+30.0 +16.6 44 +33 +35 душно 1015.1 997.1
18 13.06 ЮВ 1 10 км {гроза} 10/3 600 м
[Cb cap Ac trans Ci fib]
+24.0 +12.9 50 +26 +26 жарко 1017.7 999.3 +32.9
21 13.06 СВ 4 10 км 3/0
[Ci fib]
+22.8 +15.7 64 +27 +27 душно 1018.0 999.5
00 14.06 СВ 2 10 км ясно +20.4 +13.6 65 +23 +23 комфорт 1018.8 1000.1
03 14.06 В 2 10 км ясно +18.8 +10.7 59 +20 +21 1019.3 1000.5
06 14.06 ЮВ 3 10 км ясно +22.3 +11.6 51 +25 +32 комфорт 1019.8 1001.2 +18.7
09 14.06 СВ 3 10 км 1/0
[Ci fib]
+26.7 +13.9 45 +29 +43 жарко 1019.5 1001.2
12 14.06 ЮВ 2 10 км 8/8 600 м
[Cu med, cong]
+27.9 +13.6 41 +30 +32 жарко 1018.6 1000.4
15 14.06 С 2 10 км 6/5 600 м
[Sc diur, vesp Ci fib]
+29.8 +14.3 39 +32 +34 душно 1017.2 999.1
18 14.06 СЗ 1 10 км ясно +24.9 +15.7 57 +28 +28 жарко 1016.8 998.5 +30.5
21 14.06 штиль 0 10 км ясно +23.4 +13.0 52 +26 +26 жарко 1017.6 999.1
00 15.06 штиль 0 10 км ясно +19.8 +13.5 67 +21 +21 комфорт 1016.6 997.9
03 15.06 Ю 1 10 км ясно +18.4 +13.1 71 +20 +21 1016.3 997.6
06 15.06 С 2 10 км ясно +25.6 +16.0 55 +29 +38 душно 1015.8 997.5 +17.9
09 15.06 Ю 1 10 км ясно +29.2 +15.0 42 +32 +52 опасность
солнечного
удара
1014.8 996.8
12 15.06 ЮВ 1 10 км 3/3 600 м
[Cu med, cong]
+31.2 +16.2 40 +34 +45 душно 1012.6 994.7
15 15.06 СЗ 2 10 км 8/1 600 м
[Cb cap Ci]
+29.1 +18.4 52 +34 +37 очень
душно
1012.1 994.1
18 15.06 З 1 10 км 8/1 600 м
[Cb cap Ac trans Ci]
+24.7 +17.9 66 +29 +29 душно 1012.2 994.0 +32.0
21 15.06 В 1 10 км 1/1 600 м
[Sc]
+22.2 +17.3 74 +27 +27 душно 1012.2 993.8
00 16.06 ЮЗ 1 10 км ясно +20.6 +14.6 68 +24 +24 комфорт 1011.8 993.3
03 16.06 З 2 10 км 3/3 600 м
[Sc]
+20.2 +16.2 78 +24 +24 комфорт 1011.4 992.9
06 16.06 С 2 10 км ясно +26.1 +18.1 61 +31 +40 очень
душно
1011.1 993.0 +18.8
09 16.06 СЗ 3 10 км 8/3 1000 м
[Cu hum Ci fib]
+28.2 +13.6 41 +30 +39 жарко 1011.5 993.4
12 16.06 СЗ 3 10 км 8/8 600 м
[Cb calv]
+29.2 +15.4 43 +32 +34 душно 1010.6 992.6
15 16.06 С 3 10 км 4/4 600 м
[Cb calv]
+28.2 +13.9 41 +30 +32 жарко 1010.4 992.4
18 16.06 С 3 10 км 3/3 600 м
[Cb calv]
+23.4 +15.2 60 +28 +28 душно 1011.9 993.6 +29.9
21 16.06 СВ 2 10 км ясно +19.1 +15.0 77 +21 +21 комфорт 1013.5 994.9
00 17.06 В 2 10 км ясно +17.8 +15.6 87 +18 +18 1014.5 995.8
03 17.06 СЗ 2 10 км ясно +17.1 +14.5 85 +17 +18 1015.3 996.5
06 17.06 ЮВ 3 10 км ясно +23.0 +12.1 50 +26 +33 жарко 1016.2 997.7 +16.3
09 17.06 В 2 10 км 1/1 1000 м
[Cu hum]
+26.2 +11.5 40 +27 +43 жарко 1015.6 997.3
12 17.06 СЗ 2 10 км 5/5 600 м
[Sc diur, vesp]
+27.8 +11.0 35 +29 +35 жарко 1014.8 996.6
15 17.06 СВ 2 10 км 4/4 600 м
[Sc]
+27.9 +10.9 35 +29 +31 жарко 1014.0 995.9
18 17.06 СЗ 1 10 км 3/3 600 м
[Sc]
+23.6 +14.1 55 +26 +26 жарко 1014.7 996.3 +28.6
21 17.06 С 1 10 км ясно +20.8 +13.5 63 +24 +24 комфорт 1015.0 996.4
00 18.06 С 1 10 км ясно +19.1 +13.5 70 +21 +21 комфорт 1015.5 996.8
03 18.06 СЗ 1 10 км ясно +20.3 +13.5 65 +24 +25 комфорт 1015.6 997.0
06 18.06 СЗ 2 10 км ясно +25.8 +15.2 52 +29 +38 душно 1015.2 997.0 +18.5
09 18.06 СВ 2 10 км 3/3 1000 м
[Cu hum]
+28.1 +14.6 44 +31 +43 душно 1014.6 996.5
12 18.06 СЗ 2 10 км 8/8 600 м
[Cu med, cong]
+30.1 +15.0 40 +32 +35 жарко 1013.8 995.8
15 18.06 СЗ 1 10 км 8/4 600 м
[Cb calv As trans]
+29.0 +16.0 45 +32 +34 душно 1012.9 994.9
18 18.06 З 1 10 км 9/0
[Ci fib]
+24.9 +18.4 67 +29 +29 душно 1013.1 994.9 +31.1
21 18.06 СЗ 2 10 км ясно +22.4 +18.2 77 +28 +28 душно 1013.8 995.4
00 19.06 СЗ 2 10 км ясно +20.7 +16.9 79 +25 +25 комфорт 1013.8 995.3
03 19.06 СЗ 2 10 км ясно +19.9 +15.9 78 +23 +24 комфорт 1013.7 995.1
06 19.06 СВ 3 10 км ясно +25.1 +17.6 63 +29 +37 душно 1013.7 995.5 +19.5
09 19.06 СВ 4 10 км 8/8 600 м
[Cu med, cong]
+27.9 +15.5 47 +31 +33 душно 1013.7 995.6
12 19.06 СЗ 3 10 км 8/8 600 м
[Sc diur, vesp]
+28.2 +15.3 45 +31 +33 душно 1013.2 995.1
15 19.06 С 3 10 км 8/8 600 м
[Sc diur, vesp]
+29.3 +14.7 41 +32 +32 душно 1012.5 994.5
18 19.06 СВ 2 10 км ясно +25.1 +14.8 53 +28 +28 жарко 1013.3 995.0 +30.6

 

Местоположение метеостанции Красноград (Харьковская область, Украина): широта 49.38 долгота 35.45 высота над уровнем моря 159 м.

В архиве по умолчанию представлена погода в Краснограде за последнюю неделю. Архивные данные за месяц целиком и за предыдущие месяцы, начиная с января 2011 года, Вы можете получить, выбрав интересующий диапазон дат из раскрывающегося списка и нажав кнопку "Ввод!".


*Определитесь, кто Вы:
робот инопланетянин человек

Внимание! Время в таблицах - всемирное. Для получения местного времени необходимо прибавить поправку, которая равна 2 ч.

Смотрите также архив погоды в соседних городах и на ближайших метеорологических станциях:

Погода в Коломаке (Харьковская область, Украина) (55 км)
Погода в Губинихе (Днепропетровская область, Украина) (66 км)
Погода в Полтаве (Полтавская область, Украина) (69 км)
Погода в Комсомольском (Донецкая область, Украина) (82 км)
Погода в Харькове (Харьковская область, Украина) (82 км)
Погода в Лозовой (Харьковская область, Украина) (83 км)
Погода в Боходухове (Харьковская область, Украина) (91 км)
Погода в Днепре (Днепропетровская область, Украина) (94 км)
Погода в Кобеляках (Полтавская область, Украина) (94 км)
Погода в Павлограде (Днепропетровская область, Украина) (99 км)

Пояснения к столбцам:

Ветер - указаны скорость ветра в м/с - средняя за 10 мин, порывы в срок и между сроками (в фигурных скобках) и направление, откуда дует ветер: С - северный, СВ - северо-восточный, В - восточный, ЮВ - юго-восточный, Ю - южный, ЮЗ - юго-западный, З - западный, СЗ - северо-западный.
Видимость - горизонтальная дальность видимости в метрах или километрах. При видимости от 1 до 10 км при отсутствии осадков обычно наблюдается дымка, при ухудшении видимости до 1 км и менее - туман. В сухую погоду видимость может ухудшаться дымом, пылью или мглою.
Явления - указаны атмосферные явления, наблюдавшиеся в срок или в последний час перед сроком; фигурными скобками обозначены явления, наблюдавшиеся между сроками (за 1-3 часа до срока); квадратными скобками обозначены град или гололедные отложения с указанием их диаметра в мм.
Облачность - указаны через наклонную черту общая и нижняя облачность в баллах и высота нижней границы облаков в метрах; квадратными скобками обозначены формы облаков: Ci - перистые, Cs - перисто-слоистые, Cc - перисто-кучевые, Ac - высококучевые, As - высокослоистые, Sc - слоисто-кучевые, Ns - слоисто-дождевые, Cu - кучевые, Cb - кучево-дождевые. Подробнее классификацию облаков см. в Атласе облаков (PDF).
T - Температура воздуха - температура, измеренная на высоте 2 м над землей.
Td - Температура точки росы - температура, при понижении до которой содержащийся в воздухе водяной пар достигнет насыщения.
f - Относительная влажность воздуха - влажноcть воздуха, измеренная на высоте 2 м над землей.
Te - Эффективная температура - температура, которую ощущает одетый по сезону человек в тени. Характеристика душности погоды. При расчете учитывается влияние влажности воздуха и скорости ветра на теплоощущения человека.
Tes - Эффективная температура на солнце - температура, которую ощущает человек, с поправкой на солнечный нагрев. Характеристика знойности погоды. Зависит от высоты солнца над горизонтом, облачности и скорости ветра. Ночью, в пасмурную погоду, а также при ветре 12 м/с и более поправка равна нулю.
P - Атмосферное давление - приведенное к уровню моря атмосферное давление.
Po - Атмосферное давление - измеренное на уровне метеостанции атмосферное давление.
Tmin - Минимальная температура - минимум температуры воздуха на высоте 2 м над землей.
Tmax - Максимальная температура - максимум температуры воздуха на высоте 2 м над землей.
R - Количество осадков - Количество выпавших осадков за период времени, мм. При наведении курсора мыши на число - период времени, за который выпало указанное количество осадков.
R24 - Количество осадков - Количество выпавших осадков за 24 часа, мм.
S - Снежный покров - Высота снежного покрова, см. При наведении курсора мыши на число - состояние снежного покрова и степень покрытия местности в баллах.